Regional Weather Roundup
Issued by NWS

Home | Current Version | Previous Version | Graphics & Text | Print | Product List | Glossary On
Versions: 1 2 3 4 5 6 7 8 9 10 11 12 13 14 15 16 17 18 19 20 21 22 23 24 25 26 27 28 29 30 31 32 33 34 35 36 37 38 39 40 41 42 43 44 45 46 47 48 49 50
000
ASUS43 KMKX 021710
RWRWI

WISCONSIN REGIONAL WEATHER ROUNDUP
NATIONAL WEATHER SERVICE MILWAUKEE/SULLIVAN WI
1100 AM CST MON MAR 02 2015

NOTE: "FAIR" INDICATES FEW OR NO CLOUDS BELOW 12,000 FEET WITH NO
SIGNIFICANT WEATHER AND/OR OBSTRUCTIONS TO VISIBILITY.

WIZ001-002-006>008-014>016-023>028-021800-
NORTHWEST WISCONSIN

CITY           SKY/WX    TMP DP  RH WIND       PRES   REMARKS
SUPERIOR ARPT  SUNNY     22   9  58 SW12      30.44S WCI  10
ASHLAND        SUNNY     21   7  54 SW9       30.44R WCI  11
HAYWARD        SUNNY     20   4  50 SW8       30.43R WCI  10
SIREN          SUNNY     21   7  55 SW6       30.45F WCI  14
CUMBERLAND     SUNNY     18   9  68 SW8       30.45S WCI   7
RICE LAKE      SUNNY     19   7  60 S5        30.48S WCI  12
CHETEK         SUNNY     20   4  51 SW6       30.47F WCI  12
LADYSMITH      SUNNY     20   7  55 SW6       30.46S WCI  13
EAU CLAIRE     SUNNY     19   6  57 W6        30.49F WCI  11
MENOMONIE      SUNNY     22   5  49 S5        30.50F WCI  16
NEW RICHMOND   SUNNY     21   7  54 S8        30.47F WCI  12
OSCEOLA        SUNNY     22   9  57 S8        30.49F WCI  13
$$

WIZ003>005-009-010-017-018-021800-
NORTH CENTRAL WISCONSIN

CITY           SKY/WX    TMP DP  RH WIND       PRES   REMARKS
MANITOWISH WTR SUNNY     18   4  54 W10G16    30.36S WCI   7
ARBOR VITAE    SUNNY     19   5  53 NW8       30.37S WCI   9
WOODRUFF       SUNNY     19   5  53 NW8       30.37S WCI   9
RHINELANDER    SUNNY     19   5  54 W12       30.39R WCI   7
EAGLE RIVER    SUNNY     19   3  51 W6        30.36R WCI  10
LAND O LAKES   SUNNY     21   5  50 W7        30.36R WCI  12
PHILLIPS       SUNNY     19   2  49 W8        30.40S WCI   8
TOMAHAWK       SUNNY     20   3  48 CALM      30.41S
MEDFORD        SUNNY     17   5  60 SW5       30.42F WCI   9
MERRILL        SUNNY     20   6  54 SW6       30.43S WCI  13
$$

WIZ029-030-035-036-043>047-021800-
CENTRAL WISCONSIN

CITY           SKY/WX    TMP DP  RH WIND       PRES   REMARKS
WAUSAU         SUNNY     18   5  57 NW6       30.43R WCI  10
MOSINEE        SUNNY     19   9  63 SW7       30.45R WCI  10
MARSHFIELD     SUNNY     17   6  62 W7        30.45F WCI   8
STEVENS POINT  SUNNY     18   4  55 W5        30.46F WCI  11
WAUPACA        SUNNY     26   5  41 CALM      30.48S
WAUTOMA        SUNNY     23   7  50 W7        30.49S WCI  15
WISC RAPIDS    SUNNY     22   4  46 CALM      30.48F
CAMP DOUGLAS   SUNNY     21   8  56 SW3       30.49F
$$

WIZ011>013-019>022-031-037>040-048>050-021800-
NORTHEAST WISCONSIN

CITY           SKY/WX    TMP DP  RH WIND       PRES   REMARKS
ANTIGO         SUNNY     19   6  56 W8        30.40R WCI   9
SHAWANO        SUNNY     24   7  49 W7        30.47R WCI  16
OCONTO         SUNNY     23   6  49 W6        30.47R WCI  15
STURGEON BAY   SUNNY     21   7  53 W6        30.47R WCI  14
GREEN BAY      SUNNY     23   7  50 SW7       30.48R WCI  15
MANITOWOC      SUNNY     29  10  45 CALM      30.49R
APPLETON       SUNNY     21   7  53 W5        30.47R WCI  15
CLINTONVILLE   SUNNY     23   7  50 W7        30.47S WCI  15
OSHKOSH        SUNNY     22   9  57 CALM      30.48R
$$

WIZ032>034-041-042-053>061-021800-
SOUTHWEST WISCONSIN

CITY           SKY/WX    TMP DP  RH WIND       PRES   REMARKS
LA CROSSE      SUNNY     23   8  52 W3        30.51F
SPARTA         SUNNY     23   7  51 N3        30.51F
VIROQUA        SUNNY     19   9  64 CALM      30.46F
BOSCOBEL       SUNNY     23  11  60 SW3       30.52F
PRAIRIE DU CHI SUNNY     22   9  58 CALM      30.52F
PLATTEVILLE    SUNNY     19  12  73 CALM      30.49F
$$

WIZ056-057-062-063-064-067-068-021800-
SOUTH CENTRAL WISCONSIN

CITY           SKY/WX    TMP DP  RH WIND       PRES   REMARKS
REEDSBURG      SUNNY     20   8  58 CALM      30.48F
BARABOO/DELLS  SUNNY     21   9  59 W3        30.48F
LONE ROCK      SUNNY     20  10  65 SW6       30.51F WCI  12
MINERAL POINT  SUNNY     23  12  63 CALM      30.48S
MADISON        MOSUNNY   23   8  52 NW7       30.50S WCI  15
MIDDLETON      SUNNY     24  10  55 N3        30.50F
WATERTOWN      SUNNY     23  11  59 W5        30.49S WCI  17
MONROE         SUNNY     23  14  68 CALM      30.48S
JANESVILLE     SUNNY     25  10  54 NW5       30.51R WCI  19
$$

WIZ051-052-058>065-066-070>072-021800-
SOUTHEAST WISCONSIN

CITY           SKY/WX    TMP DP  RH WIND       PRES   REMARKS
MILWAUKEE      MOSUNNY   26   8  46 NW8       30.50R WCI  18
WAUKESHA       SUNNY     19   9  63 NW7       30.50R WCI  10
MILWAUKEE/TIMM SUNNY     25   9  50 W7        30.50R WCI  17
RACINE         SUNNY     24   9  52 CALM      30.51S
BURLINGTON     SUNNY     23   8  52 CALM      30.50S
KENOSHA        SUNNY     22  11  62 NW7       30.50S WCI  13
FOND DU LAC    SUNNY     23   8  52 W7        30.49R WCI  15
SHEBOYGAN      SUNNY     24   7  48 CALM      30.48R
WEST BEND      SUNNY     25   9  50 NW3       30.48S
JUNEAU         SUNNY     21   9  57 CALM      30.49S
$$

LSZ147-162-021800-
LAKE SUPERIOR

STATION/POSITION TIME  TEMP    WIND        PRES    WAVE
                       AIR SEA DIR/SP/G            HT/PER
                 (UTC) (F)     (DEG/KT/KT) (MB)    (FT/S)
DEVILS ISLAND    1700   17     240/ 15/ 18 1031.8R
PORT WING        1640   20     240/  6/ 11 1030.8R
SAXON HARBOR     1640   22     270/  4/ 10 1030.5R
$$

LMZ867-665-643>646-021800-
LAKE MICHIGAN

STATION/POSITION TIME  TEMP    WIND        PRES    WAVE
                       AIR SEA DIR/SP/G            HT/PER
                 (UTC) (F)     (DEG/KT/KT) (MB)    (FT/S)
NORTHPORT PIER   1607   20     290/  9/ 15 1030.1S
SISTER BAY       1628             CALM       N/A
KEWAUNEE LAKESHO 1600   22     360/  6/  9 1030.3S
SHEBOYGAN LAKESH 1700   22     230/  3/  5 1033.9R
PORT WASHINGTON  1640   24     250/  3/  9 1033.5R
MILWAUKEE LAKESH 1600   23     310/  4/  6   N/A
KENOSHA   LAKESH 1700   23     310/  5/  8 1033.2R
$$

TC  - TEMPERATURE IN CELSIUS
VSB - VISIBILITY IN STATUTE MILES
WCI - WIND CHILL INDEX
HX  - HEAT INDEX



USA.gov is the U.S. government's official web portal to all federal, state and local government web resources and services.